[[{"header":{"parameterUnit":"m.s-1","parameterCategory":1,"la1":30.2992,"la2":30.254,"lo1":-89.0895,"lo2":-89.0443,"dy":0.0025,"dx":0.0025,"nx":19,"ny":19,"refTime":"2026-05-14T21:00:00:Z","depth":0,"parameterNumber":2,"parameterNumberName":"U-component_of_WINDS"},"data":[0,0,0,-3.0167,-3.0169,-3.0262,-3.0262,-3.038,-3.0381,0,0,0,0,0,0,0,0,0,0,0,-3.0139,-3.0139,-3.0167,-3.0169,-3.0262,-3.0262,-3.038,-3.0381,0,0,0,0,0,0,0,0,0,0,0,-3.0138,-3.0139,-3.014,-3.0169,-3.0261,-3.0262,-3.0379,-3.031,0,0,0,0,0,0,0,0,0,0,-3.022,-3.0193,-3.0139,-3.014,-3.017,-3.0261,-3.0262,-3.0306,-3.0314,-3.0338,0,-3.0358,0,-3.0371,-3.0389,-3.0389,0,0,0,-3.0169,-3.0186,-3.0212,-3.014,-3.0171,-3.0261,-3.022,-3.0311,-3.0319,-3.0348,-3.036,-3.0364,-3.0373,-3.039,-3.039,-3.0523,-3.0524,0,0,-3.0164,-3.0155,-3.0206,-3.0218,-3.0203,-3.0217,-3.0223,-3.0316,-3.0328,-3.036,-3.0367,-3.0375,-3.039,-3.0391,-3.0523,-3.0523,0,0,0,-3.0149,-3.0151,-3.0175,-3.0213,-3.023,-3.022,-3.0226,-3.0324,-3.0333,-3.0368,-3.0377,-3.0391,-3.0392,-3.0522,-3.0523,-3.0542,0,0,0,-3.0146,-3.0142,-3.0172,-3.0167,-3.0228,-3.0278,-3.0232,-3.0326,-3.0337,-3.0376,-3.0391,-3.0394,-3.0521,-3.0522,-3.054,-3.0552,0,0,0,-3.0133,-3.0141,-3.0154,-3.0167,-3.0206,-3.0277,-3.0291,-3.0329,-3.0342,-3.0389,-3.0394,-3.0521,-3.0522,-3.0538,-3.055,-3.0584,0,0,0,-3.0116,-3.017,-3.0154,-3.0219,-3.0206,-3.0288,-3.029,-3.0352,-3.0395,-3.0392,-3.0521,-3.0523,-3.0538,-3.0548,-3.0582,-3.061,-3.0621,0,0,-3.0179,-3.0177,-3.0216,-3.0205,-3.0288,-3.0275,-3.0362,-3.041,-3.0423,-3.0489,-3.0493,-3.0541,-3.0549,-3.0584,-3.069,-3.0698,0,0,0,-3.0233,-3.026,-3.0284,-3.0325,-3.0363,-3.0397,-3.0433,-3.0452,-3.0508,-3.0455,-3.0564,-3.0569,-3.0589,-3.0603,-3.0611,-3.0629,-3.0529,-3.0529,-3.0529,-3.0307,-3.0322,-3.0387,-3.0413,-3.0452,-3.049,-3.0523,-3.0554,-3.0557,-3.0582,-3.0601,-3.0664,-3.068,-3.0685,-3.0704,-3.0619,-3.0619,-3.0619,-3.0619,-3.04,-3.0441,-3.0445,-3.0509,-3.0525,-3.0579,-3.0618,-3.0619,-3.0671,-3.0651,-3.0669,-3.0644,-3.0695,-3.0711,-3.0621,-3.062,-3.062,-3.062,-3.062,-3.0449,-3.0471,-3.0493,-3.0553,-3.0598,-3.0624,-3.0674,-3.0687,-3.07,-3.0718,-3.0739,-3.0739,-3.0739,-3.0728,-3.0728,-3.0728,-3.0728,-3.0729,-3.0729,-3.0491,-3.0515,-3.0556,-3.0602,-3.063,-3.0668,-3.0708,-3.0736,-3.077,-3.0775,-3.0776,-3.0776,-3.0697,-3.0676,-3.0732,-3.0732,-3.0731,-3.0731,-3.0731,-3.0577,-3.056,-3.0623,-3.0651,-3.0707,-3.0751,-3.0767,-3.0823,-3.0849,-3.0873,-3.0871,-3.0811,-3.081,-3.0804,-3.0787,-3.0868,-3.0868,-3.0868,-3.0868,-3.0617,-3.0619,-3.0686,-3.073,-3.0775,-3.0797,-3.0868,-3.09,-3.093,-3.0947,-3.0937,-3.0916,-3.091,-3.0913,-3.0905,-3.0888,-3.0994,-3.0994,-3.0994,-3.0671,-3.0677,-3.0735,-3.0764,-3.0809,-3.0848,-3.0915,-3.0966,-3.0997,-3.0999,-3.096,-3.0955,-3.0921,-3.0909,-3.0908,-3.0895,-3.0866,0,0]},{"header":{"parameterUnit":"m.s-1","parameterCategory":1,"la1":30.2992,"la2":30.254,"lo1":-89.0895,"lo2":-89.0443,"dy":0.0025,"dx":0.0025,"nx":19,"ny":19,"refTime":"2026-05-14T21:00:00:Z","depth":0,"parameterNumber":3,"parameterNumberName":"V-component_of_WINDS"},"data":[0,0,0,4.2314,4.2313,4.2293,4.2293,4.2271,4.2271,0,0,0,0,0,0,0,0,0,0,0,4.2324,4.2324,4.2314,4.2313,4.2293,4.2293,4.2271,4.2271,0,0,0,0,0,0,0,0,0,0,0,4.2324,4.2324,4.2324,4.2313,4.2293,4.2293,4.2271,4.2285,0,0,0,0,0,0,0,0,0,0,4.2304,4.2317,4.2324,4.2324,4.2313,4.2293,4.2293,4.2285,4.2284,4.2283,0,4.2284,0,4.2278,4.227,4.227,0,0,0,4.231,4.2319,4.231,4.2324,4.2313,4.2293,4.2301,4.2284,4.2283,4.2281,4.2284,4.2283,4.2277,4.227,4.227,4.228,4.2281,0,0,4.2311,4.2322,4.2311,4.2309,4.2314,4.2302,4.2301,4.2283,4.2287,4.2284,4.2282,4.2277,4.227,4.227,4.228,4.228,0,0,0,4.2317,4.2323,4.2314,4.231,4.2306,4.2301,4.23,4.2287,4.2284,4.2282,4.2277,4.227,4.227,4.228,4.228,4.2302,0,0,0,4.2317,4.2326,4.2315,4.2321,4.2306,4.2297,4.2304,4.2285,4.2283,4.2277,4.227,4.2269,4.228,4.228,4.2301,4.231,0,0,0,4.2324,4.2327,4.2326,4.2322,4.2314,4.2297,4.2292,4.2284,4.2279,4.227,4.2269,4.2279,4.228,4.23,4.2309,4.2317,0,0,0,4.2334,4.2344,4.2326,4.2336,4.2314,4.2311,4.2292,4.2289,4.2283,4.227,4.228,4.228,4.23,4.2308,4.2316,4.2326,4.2331,0,0,4.2353,4.2347,4.2351,4.2335,4.2338,4.2313,4.2319,4.2303,4.2291,4.2284,4.2284,4.2302,4.2309,4.2317,4.2357,4.2362,0,0,0,4.2361,4.2365,4.2363,4.236,4.2349,4.234,4.2322,4.2317,4.2311,4.229,4.2306,4.231,4.2315,4.2319,4.2323,4.2326,4.2283,4.2283,4.2283,4.2403,4.2389,4.2396,4.2381,4.2377,4.236,4.2356,4.2345,4.233,4.2334,4.2332,4.2359,4.2364,4.2367,4.237,4.2336,4.2336,4.2336,4.2336,4.243,4.2433,4.2416,4.2417,4.2402,4.2402,4.2386,4.2376,4.2373,4.2359,4.2362,4.2347,4.2372,4.2374,4.2338,4.2338,4.2338,4.2337,4.2337,4.2455,4.2455,4.2449,4.2443,4.2441,4.2424,4.2423,4.2409,4.2396,4.2399,4.2395,4.2395,4.2393,4.2398,4.2399,4.2399,4.2399,4.2399,4.2399,4.2484,4.2477,4.2479,4.247,4.2467,4.246,4.2444,4.244,4.2432,4.2422,4.2422,4.2407,4.2377,4.237,4.24,4.24,4.24,4.24,4.24,4.2516,4.2508,4.251,4.2507,4.2496,4.2495,4.2478,4.2471,4.2466,4.2466,4.2451,4.2431,4.2423,4.242,4.2414,4.2454,4.2454,4.2454,4.2454,4.2538,4.2534,4.2534,4.253,4.2525,4.2511,4.2514,4.2502,4.2487,4.2483,4.2476,4.2467,4.2464,4.2458,4.2454,4.2448,4.2495,4.2495,4.2495,4.2557,4.2552,4.2558,4.2545,4.2536,4.2528,4.2531,4.2527,4.2509,4.2497,4.248,4.2478,4.2463,4.2459,4.2446,4.244,4.2429,0,0]}]]